Temp
19 19 19 19 18 18 18 18 18 18 18 18 18 18 18 18 17 17 17 17 17 17 16 16 16 16 16 16 16 16 16 16 16 16 16 16 16 16 16 16 16 16 16 16 16 16 15 15 15 15 15 15 15 15 15 15 15 15 15 15 15 15 15 15 15 15 15 15 15
19 19 19 19 18 18 18 18 18 18 18 18 18 18 18 18 18 17 17 17 17 17 17 17 16 16 16 16 16 16 16 16 16 16 16 16 16 16 16 16 16 16 16 16 16 16 15 15 15 15 15 15 15 15 15 15 15 15 15 15 15 15 15 15 15 15 15 15 15
19 19 19 19 18 18 18 18 18 18 18 18 18 18 18 18 18 18 17 17 17 17 17 17 17 17 17 16 16 16 16 16 16 16 16 16 16 16 16 16 16 16 16 16 16 16 16 15 15 15 15 15 15 15 15 15 15 15 15 15 15 15 15 15 15 15 15 15 15
19 19 19 18 18 18 18 18 18 18 18 18 18 18 18 18 18 18 18 17 17 17 17 17 17 17 17 17 17 16 16 16 16 16 16 16 16 16 16 16 16 16 16 16 16 16 16 16 15 15 15 15 15 15 15 15 15 15 15 15 15 15 15 15 15 15 15 15 15
19 19 18 18 18 18 18 18 18 18 18 18 18 18 18 18 18 18 18 18 17 17 17 17 17 17 17 17 17 17 16 16 16 16 16 16 16 16 16 16 16 16 16 16 16 16 16 16 15 15 15 15 15 15 15 15 15 15 15 15 15 15 15 15 15 15 15 15 15
19 19 18 18 18 18 18 18 18 18 18 18 18 18 18 18 18 18 18 18 18 17 17 17 17 17 17 17 17 17 17 17 16 16 16 16 16 16 16 16 16 16 16 16 16 16 16 15 15 15 15 15 15 15 15 15 15 15 15 15 15 15 15 15 15 15 15 15 15
19 19 19 18 18 18 18 18 18 18 18 18 18 18 18 18 18 18 18 18 18 17 17 17 17 17 17 17 17 17 17 17 17 16 16 16 16 16 16 16 16 16 16 16 16 16 16 15 15 15 15 15 15 15 15 15 15 15 15 15 15 15 15 15 15 15 15 15 15
19 19 19 19 18 18 18 18 18 18 18 18 18 18 18 18 18 18 17 17 17 17 17 17 17 17 18 18 17 17 17 17 17 17 17 16 16 16 16 16 16 16 16 16 16 16 16 15 15 15 15 15 15 15 15 15 15 15 15 15 15 15 15 15 15 15 15 15 15
19 19 19 19 19 18 18 18 18 18 18 18 18 18 18 18 18 17 17 17 17 17 17 17 17 17 18 18 18 17 17 17 17 17 17 17 17 16 16 16 16 16 16 16 16 16 16 16 15 15 15 15 15 15 15 15 15 15 15 15 15 15 15 15 15 14 14 14 14
19 19 19 19 19 19 18 18 18 18 18 18 18 18 18 18 18 18 18 17 17 17 17 17 17 17 17 18 18 17 17 17 17 17 17 17 17 17 17 17 16 16 16 16 16 16 16 16 15 15 15 15 15 15 15 15 15 15 15 15 15 15 15 15 15 15 15 14 14
19 19 19 19 19 19 19 18 18 18 18 18 18 18 18 18 18 18 18 18 18 18 18 18 18 18 17 17 17 17 17 17 17 17 17 17 17 17 17 17 17 17 17 16 16 16 16 16 16 15 15 15 15 15 15 15 15 15 15 15 15 15 15 15 15 15 15 15 14
19 19 19 19 19 19 19 18 18 18 18 18 18 18 18 18 18 18 18 18 18 18 18 18 18 18 18 18 17 17 17 17 17 17 17 17 17 17 17 17 17 17 17 17 17 16 16 16 16 16 16 15 15 15 15 15 15 15 15 15 15 15 15 15 15 15 15 15 15
19 19 19 19 19 18 18 18 18 18 18 18 18 18 18 18 18 18 18 18 18 18 18 18 18 18 18 18 18 17 17 17 17 17 17 17 17 17 17 17 17 17 17 17 17 17 17 16 16 16 16 16 16 15 15 15 15 15 15 15 15 15 15 15 15 15 15 15 15
18 18 18 18 18 18 18 18 18 18 18 18 18 18 18 18 18 18 18 18 18 18 18 18 18 18 18 18 18 18 17 17 17 17 17 17 17 17 17 17 17 17 17 17 17 17 17 17 17 16 16 16 16 16 16 16 15 15 15 15 15 15 15 15 15 15 15 15 15
18 18 18 18 18 18 18 18 18 18 18 18 18 18 18 18 18 18 18 18 18 18 18 18 18 18 18 18 18 18 17 17 17 17 17 17 17 17 17 17 17 17 17 17 17 17 17 17 17 17 17 16 16 16 16 16 16 16 16 15 15 15 15 15 15 15 15 15 15
18 18 18 18 18 18 18 18 18 18 18 18 18 18 18 18 18 18 18 18 18 18 18 18 18 18 18 18 18 18 18 17 17 17 17 17 17 17 17 17 17 17 17 17 17 17 17 17 17 17 17 17 17 17 16 16 16 16 16 16 16 16 16 16 16 16 15 15 15
18 18 18 18 18 18 18 18 18 18 18 18 18 18 18 18 18 18 18 18 18 18 18 18 18 18 18 18 18 18 18 18 18 18 18 18 18 18 18 18 18 18 18 17 17 17 17 17 17 17 17 17 17 17 17 17 16 16 16 16 16 16 16 16 16 16 16 15 15
18 18 18 18 18 18 18 18 18 18 18 18 18 18 18 18 18 18 18 18 18 18 18 18 18 18 18 18 18 18 18 18 18 18 18 18 18 18 18 18 18 18 18 18 18 18 18 18 17 17 17 17 17 17 17 17 17 16 16 16 16 16 16 16 16 16 16 15 15
18 18 18 18 18 18 18 18 18 18 18 18 18 18 18 18 18 18 18 18 18 18 18 18 18 18 18 18 18 18 18 18 18 18 18 18 18 18 18 18 18 18 18 18 18 18 18 18 18 18 18 17 17 17 17 17 17 16 16 16 16 16 16 16 16 16 16 15 15
18 18 18 18 18 18 18 18 18 18 18 18 18 18 18 18 18 18 18 18 18 18 18 18 18 18 18 18 18 18 18 18 18 18 18 18 18 18 18 18 18 18 18 18 18 18 18 18 18 18 18 18 17 17 17 17 17 16 16 16 16 16 16 16 16 15 15 15 15
18 18 18 18 18 18 18 18 18 18 18 18 18 18 18 18 18 18 18 18 18 18 18 18 18 18 18 18 18 18 18 18 18 18 18 18 18 18 18 18 18 18 18 18 18 18 18 18 18 18 18 17 17 17 17 17 17 16 16 16 16 15 15 15 15 15 14 14 14
17 17 17 17 17 17 17 17 18 18 18 18 18 18 18 18 18 18 18 18 18 18 18 18 18 18 18 18 18 18 18 18 18 18 18 18 18 18 18 18 18 18 18 18 18 18 18 18 18 18 17 17 17 17 17 17 16 16 16 16 15 15 15 15 14 14 14 14 14
16 16 16 16 17 17 17 17 17 17 17 17 18 18 18 18 18 18 18 18 18 18 18 18 18 18 18 18 18 18 18 18 18 18 18 18 18 18 18 18 18 18 18 18 18 18 18 18 17 17 17 17 17 17 17 16 16 16 16 15 15 15 15 15 14 14 14 14 14
16 16 16 16 16 16 16 17 17 17 17 17 17 17 17 17 17 17 18 18 18 18 18 18 18 18 18 18 18 18 18 18 18 18 18 18 18 18 18 18 18 18 18 18 18 18 18 17 17 17 17 17 17 16 16 16 16 15 15 15 15 15 15 14 14 14 14 14 14
15 15 16 16 16 16 16 16 16 16 16 17 17 17 17 17 17 17 17 17 17 17 17 17 17 17 17 17 17 17 17 17 17 17 18 18 18 18 18 18 18 18 18 17 17 17 17 17 17 17 16 16 16 16 16 15 15 15 15 15 14 14 14 14 14 14 14 14 14
15 15 15 15 15 15 16 16 16 16 16 16 16 16 16 16 17 17 17 17 17 17 17 17 17 17 17 17 17 17 17 17 17 17 17 17 17 17 17 17 17 17 17 17 17 17 17 16 16 16 16 16 16 15 15 15 15 14 14 14 14 14 14 14 13 13 13 13 13
14 15 15 15 15 15 15 15 15 15 16 16 16 16 16 16 16 16 16 16 17 17 17 17 17 17 17 17 17 17 17 17 17 17 17 17 17 17 17 17 17 17 16 16 16 16 16 16 16 15 15 15 15 15 15 14 14 14 14 14 14 13 13 13 13 13 13 13 13
14 15 15 15 15 15 15 15 15 15 15 15 16 16 16 16 16 16 16 16 16 16 17 17 17 17 17 17 17 17 17 17 17 17 17 17 17 17 17 16 16 15 15 15 15 15 15 15 15 15 15 14 14 14 14 14 13 13 13 13 13 13 13 13 13 13 13 12 12
14 15 15 15 15 15 15 15 15 15 15 15 15 15 15 16 16 16 16 16 16 16 16 17 16 16 16 16 16 16 16 16 16 16 16 16 16 16 16 16 15 14 14 14 14 14 14 14 14 14 14 14 13 13 13 13 13 13 13 13 13 13 13 12 12 12 12 12 12
14 14 15 15 15 15 15 15 15 15 15 15 15 16 16 16 16 16 16 16 16 16 16 16 16 16 16 16 16 16 16 16 16 16 16 16 16 16 15 14 14 13 13 13 13 14 14 14 14 13 13 13 13 13 12 12 12 12 12 12 12 12 12 12 12 12 12 11 11
14 14 14 14 15 15 15 15 15 15 15 15 15 15 15 15 16 16 16 16 16 16 16 16 16 16 16 16 16 16 16 16 15 15 15 15 15 14 14 13 13 13 12 13 13 13 13 13 13 13 13 13 13 13 12 12 12 12 12 12 12 11 11 11 11 11 11 11 10
13 13 14 14 14 14 15 15 15 15 14 14 14 14 14 14 15 15 15 15 15 15 15 16 16 16 16 15 15 15 15 15 14 14 14 14 14 13 13 13 12 12 12 12 13 13 13 13 13 13 13 13 13 13 12 12 11 11 11 11 11 11 11 11 11 10 10 10 9
13 13 13 13 13 14 14 14 14 13 13 13 13 13 13 13 14 14 14 14 14 15 15 15 14 14 14 14 14 14 14 13 13 13 13 13 13 12 12 12 12 12 12 12 12 13 13 13 13 13 12 12 12 12 12 11 11 11 11 11 11 11 11 10 10 9 9 9 8
13 13 13 12 12 13 13 13 13 13 12 12 12 12 13 13 13 13 13 13 13 13 13 13 13 13 13 13 13 13 13 13 12 12 12 12 12 12 12 12 11 11 12 12 12 12 12 12 12 12 12 12 12 11 11 11 11 11 11 11 10 10 10 9 9 8 8 8 7
12 12 12 12 12 12 12 12 12 12 12 12 12 12 12 12 12 12 12 12 13 13 13 13 13 12 12 12 12 12 12 12 12 12 12 12 12 12 12 11 11 11 11 11 11 12 12 12 11 11 11 11 11 11 11 11 11 11 10 10 10 10 9 8 8 8 7 7 7
12 12 12 11 11 11 11 11 11 11 11 11 11 11 11 11 11 12 12 12 12 12 12 12 12 12 12 11 11 11 11 11 11 11 11 11 11 11 11 11 11 11 11 11 11 11 11 11 11 11 11 11 11 10 10 10 10 10 10 10 9 9 8 8 7 7 7 7 7
11 11 11 11 10 10 10 10 10 10 10 10 10 10 11 11 11 11 11 12 12 11 11 11 11 11 11 11 11 11 11 11 11 11 10 10 10 10 10 10 10 10 10 10 10 11 11 11 11 11 10 10 10 10 10 10 10 9 9 9 8 8 8 7 7 7 7 7 7
10 10 10 10 10 10 10 10 10 10 10 10 10 10 10 10 10 10 11 11 11 11 11 11 11 10 10 10 10 10 10 10 10 10 10 10 9 9 9 9 9 9 10 10 10 10 10 10 10 10 10 10 9 9 9 9 9 8 8 8 8 8 7 7 7 7 7 7 7
10 10 10 10 10 9 9 9 9 10 10 10 10 10 10 10 10 10 10 10 10 10 10 10 10 10 10 10 10 9 9 10 10 10 10 9 9 9 8 8 8 9 9 9 9 9 10 10 9 9 9 9 8 8 8 8 8 8 8 8 8 7 7 7 7 7 7 7 7
9 9 9 9 9 9 9 9 9 9 9 10 10 10 10 10 10 10 10 10 10 10 10 10 10 10 10 10 10 9 9 9 9 9 9 9 9 9 8 8 8 8 8 8 8 9 9 9 9 9 8 8 8 8 8 8 8 8 7 7 7 7 7 7 7 7 7 6 6
9 9 9 9 9 9 9 9 9 9 9 9 10 10 10 10 10 10 10 10 10 10 10 10 10 10 10 10 9 9 9 9 9 9 9 9 9 9 8 8 7 7 7 8 8 8 8 8 8 8 8 7 7 7 8 7 7 7 7 7 7 7 6 6 6 6 6 6 6
Height
731 732 733 735 736 737 738 739 741 742 744 745 747 748 750 751 752 753 754 756 756 757 758 759 759 760 761 761 762 763 764 765 766 766 767 768 768 769 770 771 771 772 772 773 774 775 775 776 776 776 776 777 777 778 778 778 779 779 779 779 779 779 780 780 780 780 780 780 780
731 732 733 734 736 737 738 739 741 742 743 745 746 748 749 750 751 753 754 755 756 756 757 758 759 759 760 761 761 762 763 764 764 765 766 767 767 768 769 769 770 771 771 772 773 773 774 774 775 775 775 776 776 776 776 777 777 777 777 777 777 778 778 778 778 778 778 779 779
731 732 733 734 735 736 738 739 741 742 743 745 746 747 749 750 751 752 753 754 755 756 756 757 758 758 759 760 761 761 762 763 763 764 765 766 766 767 767 768 769 770 770 771 772 772 773 773 774 774 774 774 775 775 775 775 776 776 776 776 776 776 776 776 776 777 777 777 777
731 732 733 734 735 736 737 739 740 741 743 744 746 747 748 750 751 752 753 754 755 755 756 756 757 758 758 759 760 761 761 762 762 763 764 764 765 766 766 767 768 768 769 770 770 771 771 772 772 772 773 773 773 773 773 774 774 774 774 774 775 775 775 775 775 775 776 776 776
731 732 733 734 735 736 737 739 740 741 743 744 745 746 748 749 750 751 752 753 754 755 755 756 756 757 758 758 759 760 760 761 762 762 763 763 764 765 765 766 767 767 768 768 769 770 770 771 771 771 771 771 771 771 772 772 773 773 773 773 773 773 773 774 774 774 774 774 774
731 732 733 734 735 736 738 739 740 741 742 744 745 746 747 748 750 751 751 752 753 754 755 755 756 756 757 758 758 759 760 760 761 761 762 762 763 764 764 765 766 766 767 767 768 768 769 769 770 770 770 770 770 770 771 771 771 771 771 772 772 772 772 772 772 772 773 773 772
730 731 733 734 735 736 738 739 740 741 742 743 745 746 746 748 749 750 751 752 752 753 754 755 755 756 756 757 758 758 759 759 760 761 761 761 762 763 763 764 764 765 766 766 766 767 767 768 768 768 768 768 769 769 769 770 770 770 770 770 770 771 771 771 771 771 771 771 771
730 731 732 734 735 736 737 739 740 741 742 743 744 745 746 747 748 749 750 751 752 753 753 754 755 755 756 756 757 758 758 759 759 760 760 761 761 762 762 763 763 764 764 765 765 766 766 766 766 766 767 767 767 768 768 769 769 769 769 769 769 770 770 770 770 770 770 770 770
730 731 732 733 735 736 737 738 739 741 742 743 744 745 746 747 748 748 749 750 751 752 753 753 754 755 755 756 756 757 757 758 758 759 759 760 760 761 761 762 762 763 763 764 764 765 765 765 765 765 766 766 766 766 767 768 768 768 768 768 768 768 769 769 769 769 769 768 768
730 731 732 733 735 736 737 738 739 740 741 742 744 745 746 746 747 748 749 750 751 751 752 753 753 754 755 755 756 756 757 757 758 758 758 759 759 760 761 761 761 762 762 763 763 764 764 764 764 764 765 765 766 766 766 767 767 767 767 767 767 767 767 767 767 767 767 767 767
730 731 732 733 734 736 736 738 739 740 741 742 743 744 745 746 747 748 748 749 750 751 751 752 753 753 754 754 755 756 756 756 757 757 758 758 759 759 760 760 761 761 761 762 762 763 763 763 763 763 764 764 765 765 765 766 766 766 766 766 766 766 766 766 766 766 766 766 765
730 731 732 733 734 735 736 737 739 740 741 742 743 744 745 746 746 747 748 749 749 750 751 751 752 752 753 754 754 755 755 756 756 756 757 757 758 758 759 759 760 760 761 761 761 762 762 762 762 762 763 763 764 764 764 765 765 765 765 765 765 765 765 764 765 765 765 764 764
730 731 732 733 734 735 736 737 738 740 741 741 742 743 744 745 746 746 747 748 749 749 750 751 751 752 752 753 753 754 755 755 756 756 756 757 757 758 758 759 759 759 760 760 761 761 761 761 761 762 762 762 762 763 763 763 763 763 763 763 763 763 763 763 763 763 763 763 763
730 731 732 733 734 735 736 737 738 739 740 741 742 743 744 745 745 746 747 747 748 749 749 750 751 751 751 752 753 753 754 754 755 755 756 756 756 757 757 758 758 759 759 759 760 760 760 760 761 761 761 761 761 761 762 762 762 762 762 762 762 762 762 762 762 762 762 762 761
730 731 732 733 734 735 736 737 738 739 740 741 741 742 743 744 745 746 746 747 747 748 749 749 750 751 751 751 752 753 753 754 754 755 755 756 756 756 756 757 757 758 758 758 759 759 759 759 759 760 760 760 760 760 760 761 761 761 760 760 760 761 761 761 761 761 761 760 760
730 731 732 733 734 735 736 737 738 739 740 740 741 742 743 743 744 745 746 746 747 747 748 749 749 750 750 751 751 752 752 753 753 754 754 755 755 756 756 756 756 756 757 757 757 757 758 758 758 758 759 759 759 759 759 759 759 759 759 759 759 759 759 759 760 759 759 759 759
730 731 732 733 734 735 736 736 737 738 739 740 741 741 742 743 744 744 745 746 746 747 747 748 749 749 750 750 751 751 751 752 752 753 753 754 754 755 755 755 755 756 756 756 756 756 756 757 757 757 757 757 757 758 758 758 758 758 758 758 758 758 758 758 758 758 758 758 757
730 731 732 733 734 735 736 736 737 738 739 740 740 741 742 742 743 744 744 745 746 746 746 747 748 748 749 749 750 750 751 751 751 752 752 753 753 754 754 754 754 755 755 755 755 755 755 756 756 756 756 756 756 756 756 756 756 757 757 757 757 757 757 757 757 757 757 757 756
730 731 732 733 734 735 735 736 737 738 738 739 740 741 741 742 743 743 744 744 745 746 746 746 747 748 748 749 749 749 750 750 751 751 751 752 752 753 753 753 754 754 754 754 754 754 754 755 755 755 755 755 755 755 755 755 755 756 756 756 756 756 756 756 756 756 756 756 756
730 731 732 733 733 734 735 736 736 737 738 739 740 740 741 742 742 743 743 744 744 745 746 746 746 747 747 748 748 749 749 750 750 750 751 751 751 752 752 752 753 753 753 753 753 753 753 754 754 754 754 754 754 754 754 754 754 754 755 755 755 755 755 755 755 755 755 755 755
730 731 732 733 733 734 735 736 736 737 738 739 739 740 741 741 742 742 743 743 744 744 745 745 746 746 747 747 748 748 748 749 749 750 750 750 751 751 751 751 752 752 752 752 752 752 752 752 752 753 753 753 753 753 753 753 753 753 754 754 754 754 754 754 754 754 754 753 753
730 731 731 732 732 733 734 735 736 737 738 738 739 740 740 741 741 742 742 743 743 744 744 745 745 746 746 746 747 747 748 748 748 749 749 750 750 750 751 751 751 751 751 751 751 751 751 751 751 751 751 752 752 752 752 752 752 752 752 753 753 753 753 753 753 752 752 752 752
730 731 731 731 732 733 734 735 736 736 737 738 738 739 740 740 741 741 742 742 743 743 744 744 745 745 746 746 746 746 747 747 748 748 748 749 749 749 750 750 750 750 750 750 750 750 750 750 750 750 751 751 751 751 751 751 751 751 751 751 751 752 752 752 751 751 751 751 751
730 731 731 732 733 733 734 735 735 736 736 737 738 738 739 739 740 741 741 741 742 742 743 743 744 744 745 745 746 746 746 746 747 747 748 748 748 749 749 749 749 749 750 750 749 749 749 749 749 749 749 750 750 750 750 750 750 750 750 751 751 751 751 750 750 750 750 749 749
731 731 732 732 733 733 734 735 735 736 736 737 737 738 738 739 739 740 740 741 741 742 742 743 743 744 744 745 745 745 746 746 746 746 747 747 748 748 748 748 749 749 749 748 748 748 748 748 748 748 748 749 749 749 749 749 749 749 749 749 749 749 749 749 748 748 748 748 748
731 732 732 733 733 734 734 735 735 736 736 737 737 738 738 739 739 740 740 741 741 741 742 742 743 743 743 744 744 744 745 745 746 746 746 746 747 747 747 748 748 748 748 747 747 747 747 747 747 747 748 748 748 748 748 748 748 748 748 748 748 748 747 747 747 747 747 747 747
732 732 733 733 734 734 735 735 736 736 736 736 737 737 738 738 739 739 740 740 741 741 741 742 742 743 743 743 744 744 744 745 745 746 746 746 746 747 747 747 748 747 747 746 746 746 746 746 747 747 747 747 747 747 747 747 747 747 747 747 747 747 746 746 746 746 746 746 746
733 733 733 734 734 735 735 735 736 736 736 737 737 737 738 738 739 739 740 740 741 741 741 742 742 742 743 743 743 744 744 744 745 745 745 746 746 746 747 747 747 746 746 746 746 746 746 746 746 746 746 746 746 746 746 746 746 746 746 746 746 746 746 746 746 746 746 746 745
733 733 734 734 735 735 735 736 736 736 736 736 737 737 737 738 738 739 739 740 740 741 741 741 742 742 742 743 743 743 744 744 744 745 745 745 746 746 746 746 746 746 745 745 745 745 745 745 745 745 745 745 745 745 745 745 746 746 746 746 746 746 746 746 746 745 745 745 745
733 734 734 734 735 735 736 736 736 736 736 736 737 737 738 738 739 739 740 740 740 741 741 741 741 742 742 743 743 743 744 744 744 744 745 745 746 746 746 745 745 745 745 745 745 745 745 745 745 745 744 744 744 744 745 745 745 745 746 746 746 746 746 745 745 745 745 745 744
734 734 735 735 735 736 736 736 736 736 737 737 737 738 738 738 739 739 740 740 740 740 741 741 741 742 742 742 743 743 743 744 744 744 745 745 745 745 745 745 745 745 745 745 745 745 745 744 744 744 744 744 744 744 744 745 745 745 745 745 745 745 745 745 745 744 744 744 744
735 735 735 736 736 736 736 736 736 736 737 737 737 738 738 738 739 739 740 740 740 741 741 741 741 742 742 743 743 743 743 744 744 744 745 745 745 745 745 745 745 745 745 745 745 745 745 745 744 744 744 744 744 744 744 744 744 745 745 745 745 744 744 744 744 744 744 744 743
736 736 736 736 736 737 737 737 737 737 737 737 738 738 738 739 739 740 740 740 741 741 741 741 741 742 742 743 743 743 744 744 744 744 745 745 745 745 745 745 745 745 745 745 745 745 745 745 744 744 744 744 744 744 744 744 744 745 745 744 744 744 744 744 744 744 744 744 743
737 737 737 737 737 738 738 738 738 738 738 739 739 739 739 740 740 740 740 741 741 741 741 741 742 742 742 743 743 744 744 744 745 745 745 745 745 745 745 746 746 746 746 746 745 745 745 744 744 744 744 744 744 744 744 744 745 745 744 744 744 744 744 744 744 744 743 743 742
739 739 739 739 739 739 739 739 739 740 740 740 740 741 741 741 741 741 741 741 741 741 742 742 743 743 743 744 744 744 744 745 745 746 746 746 746 746 746 746 746 746 746 746 745 745 745 745 745 745 745 744 744 744 744 744 744 744 744 744 744 745 744 744 744 743 743 742 742
740 740 740 740 740 740 740 740 741 741 741 741 741 741 741 741 741 741 741 742 742 742 743 743 744 744 744 745 745 745 745 746 746 746 746 746 746 746 746 746 746 746 746 746 746 745 745 745 745 745 745 745 745 745 744 744 744 744 744 745 745 745 744 744 744 743 743 742 741
741 741 741 741 741 741 741 741 741 741 742 742 742 742 742 742 742 742 742 742 743 743 744 744 745 745 745 746 746 746 746 746 746 746 746 746 746 746 746 746 746 746 746 746 746 746 745 745 745 745 745 745 744 744 744 744 744 745 745 745 744 744 744 744 744 743 742 742 741
742 742 742 742 742 742 742 742 742 742 743 743 743 743 743 743 743 743 743 743 744 744 745 745 745 746 746 746 746 746 746 747 747 747 747 747 747 747 747 746 746 746 746 746 746 746 746 745 745 745 745 744 744 744 745 745 745 745 745 745 745 745 744 744 744 743 742 742 741
743 743 743 743 743 743 743 743 743 744 744 744 744 744 744 744 744 744 744 745 745 745 745 746 746 747 747 747 747 747 747 747 747 747 748 748 748 748 747 747 747 747 747 746 746 746 746 745 745 745 745 744 745 745 745 745 745 745 745 745 745 745 744 744 744 743 742 742 741
744 744 745 745 745 745 745 745 745 745 745 745 745 745 745 745 745 746 746 746 746 746 746 746 747 747 747 748 748 748 748 748 748 748 748 748 748 748 748 748 747 747 747 746 746 746 746 745 745 745 745 745 745 745 745 745 745 745 745 745 745 745 744 744 743 743 742 741 741
746 745 746 746 746 746 746 746 746 746 746 746 746 746 746 746 746 746 746 746 746 747 747 747 748 748 748 748 748 748 749 749 749 749 749 749 749 749 749 748 748 747 747 747 746 746 746 746 745 745 745 745 745 745 745 745 745 745 745 745 745 744 744 743 743 742 742 741 741
Wind_Speed
22 21 21 21 21 20 20 20 20 20 20 19 19 18 18 18 17 17 17 17 17 18 18 18 19 19 20 20 21 22 23 23 23 23 23 23 24 24 24 24 23 23 22 22 21 21 21 21 21 22 22 21 21 21 20 20 20 20 21 21 22 22 22 23 23 23 23 23 24
20 20 20 20 20 20 19 18 19 19 19 18 18 18 17 17 17 17 17 17 17 17 17 17 17 18 18 19 20 21 22 22 23 23 23 23 23 24 24 24 24 23 23 22 22 21 21 21 21 21 22 22 21 21 21 21 21 21 21 22 22 22 23 23 24 24 24 24 24
19 19 19 19 19 19 18 18 18 18 18 17 17 17 16 16 16 15 15 16 16 15 15 16 16 16 17 17 18 19 20 21 22 22 22 23 23 23 24 24 24 24 23 23 22 22 22 21 21 21 21 21 21 21 21 21 21 21 22 22 22 22 23 23 24 24 24 24 24
19 18 18 18 18 18 18 17 17 17 17 17 16 16 15 15 14 14 14 14 14 14 14 14 14 15 15 16 17 18 19 20 21 21 22 23 23 23 23 23 23 23 23 23 23 22 22 22 22 21 21 21 21 22 22 22 21 22 22 22 22 22 22 23 23 23 23 24 24
18 18 18 18 18 17 17 17 17 17 16 16 16 16 15 15 14 14 13 13 14 14 13 13 13 13 14 15 16 17 18 19 20 20 21 22 22 22 22 22 22 22 23 23 23 23 22 22 22 22 22 21 21 22 22 21 21 21 22 22 22 22 22 22 22 22 22 23 23
18 18 17 17 17 16 16 16 16 16 16 16 16 16 15 15 14 14 13 13 13 13 13 12 12 12 13 14 15 16 17 18 19 20 20 21 21 21 21 21 22 22 22 22 22 22 22 22 22 22 22 22 21 21 21 21 21 21 22 22 22 22 22 22 22 22 22 23 23
18 18 17 17 17 16 15 15 15 16 15 15 15 15 15 15 14 14 13 13 13 12 12 12 12 12 12 13 14 16 17 18 18 19 20 20 20 20 20 20 20 21 21 21 21 22 22 22 22 22 22 21 21 21 21 20 21 21 22 22 22 22 22 22 22 22 22 23 23
17 17 17 17 17 16 16 15 15 15 15 15 15 15 15 14 14 14 14 13 13 12 12 12 12 12 12 13 14 15 16 17 18 19 19 19 19 19 19 19 19 20 20 21 21 21 21 22 22 22 22 21 21 21 20 20 20 21 21 22 22 22 22 22 22 22 22 23 23
15 15 16 16 17 16 15 15 15 15 14 14 14 14 14 14 14 13 13 13 13 12 12 12 13 13 13 13 14 14 15 16 17 18 18 19 19 18 18 18 19 19 20 20 20 21 21 21 22 22 22 21 21 20 20 20 20 21 21 22 22 22 22 22 22 22 22 23 23
14 14 15 16 16 16 15 14 14 14 14 13 13 13 13 13 13 13 13 12 12 12 12 13 13 13 14 14 14 15 15 16 17 17 18 18 19 19 19 19 19 19 19 20 20 20 21 21 22 22 22 21 20 20 20 20 20 20 21 22 22 22 22 22 22 22 22 23 24
13 13 14 14 15 14 14 14 13 13 12 12 12 12 12 13 13 12 12 12 12 12 12 13 13 13 14 14 15 15 15 16 16 17 17 18 18 18 19 19 19 19 19 19 19 20 20 21 21 21 21 21 20 20 20 20 20 20 21 22 22 22 22 22 22 22 22 23 23
12 12 12 13 13 13 13 13 12 12 11 11 11 11 11 11 12 12 12 12 12 12 12 13 13 14 14 14 15 15 15 16 16 16 16 17 17 18 18 18 18 18 18 18 19 19 20 20 21 21 21 21 20 20 20 20 20 21 21 22 22 23 23 23 23 22 22 22 22
11 11 11 11 11 12 12 11 11 11 10 10 10 10 10 10 11 11 12 12 12 13 13 13 13 13 14 14 14 15 15 15 16 16 16 16 16 17 17 18 18 18 18 18 18 19 19 20 20 20 21 21 21 21 20 20 20 21 22 22 22 23 23 23 23 23 22 22 22
11 10 10 10 10 11 11 11 10 10 10 9 9 9 9 10 10 11 12 12 13 13 13 13 13 13 14 14 14 14 15 15 15 15 15 16 16 16 17 17 17 18 18 18 18 19 19 20 20 20 21 21 21 21 21 21 21 21 22 22 22 23 23 23 23 23 23 23 23
10 10 10 10 10 10 10 10 10 9 9 9 9 9 9 10 10 11 11 12 12 13 13 13 13 13 13 14 14 14 14 14 14 15 15 15 15 16 16 17 17 17 18 18 19 19 20 20 20 20 21 21 21 21 21 21 22 22 22 22 22 22 22 22 22 22 23 23 23
10 10 10 10 10 10 10 10 9 9 9 9 9 9 10 10 10 11 11 12 12 13 13 13 13 13 13 14 14 14 14 14 14 15 15 15 15 16 16 16 17 17 18 18 19 19 20 20 21 21 21 21 21 21 21 22 22 22 22 22 22 21 21 21 21 21 21 22 22
10 10 9 9 9 10 10 9 9 9 9 9 9 10 10 10 10 11 11 12 12 12 13 13 13 13 13 14 14 14 15 15 15 15 15 15 15 15 16 16 17 17 17 18 19 19 20 20 20 21 21 21 21 21 21 21 21 21 21 21 21 20 20 20 20 20 20 20 21
10 9 9 9 9 9 9 9 9 9 9 9 9 10 10 10 10 11 11 11 12 12 13 13 13 13 13 13 14 14 14 15 15 15 15 15 15 15 15 16 16 16 17 17 18 19 19 19 19 20 20 20 20 21 21 20 20 20 20 20 20 20 19 19 20 20 19 19 19
9 9 9 9 9 9 9 10 9 9 9 9 9 9 10 10 10 10 10 11 11 12 12 12 12 12 13 13 13 13 14 14 14 15 15 15 15 15 15 15 15 16 16 16 17 18 18 18 18 18 19 19 19 19 19 19 19 19 19 19 19 19 19 19 19 19 19 18 17
6 7 8 8 9 9 10 10 10 10 10 10 9 9 9 9 9 9 9 9 10 10 10 11 11 11 12 12 12 12 12 13 13 13 14 14 14 14 14 14 15 15 15 15 16 16 16 17 17 17 17 17 18 18 18 18 17 17 17 17 17 18 18 18 18 18 17 17 17
4 4 4 5 6 7 8 9 9 10 10 10 10 10 9 9 9 9 9 9 9 9 9 10 10 10 11 11 11 11 11 12 12 12 13 13 13 13 14 14 14 14 14 14 15 15 15 15 16 16 16 16 16 16 16 16 15 15 15 16 16 16 16 16 16 16 16 16 16
4 3 2 2 3 3 3 4 5 7 8 9 9 9 9 9 9 9 9 9 9 9 9 9 10 10 10 10 11 11 11 12 12 12 12 13 13 13 13 13 13 13 14 14 14 15 15 15 15 15 15 15 15 14 14 14 14 14 14 14 15 15 15 15 15 16 16 17 18
3 2 1 1 2 2 2 3 3 4 4 5 5 6 6 7 7 7 8 8 9 9 9 9 10 10 10 10 11 11 11 12 12 12 12 12 12 13 13 13 13 13 13 14 14 15 15 15 15 15 15 15 14 14 13 13 13 13 14 14 15 16 17 17 17 17 18 18 19
2 1 2 2 3 3 3 4 4 4 3 3 4 4 4 5 5 6 6 7 7 8 8 9 9 9 10 10 10 11 11 11 11 12 12 12 12 12 12 12 12 12 13 13 14 14 14 14 14 14 14 14 14 14 14 13 13 14 14 15 15 16 16 17 17 17 18 18 19
3 2 1 0 1 2 3 3 3 4 4 4 4 5 5 5 5 5 6 6 7 7 8 8 9 9 9 9 10 10 10 10 11 11 11 11 11 11 10 11 11 11 11 12 12 11 10 10 10 10 11 12 12 13 13 13 13 13 13 13 13 14 14 14 15 16 16 17 18
6 5 4 3 3 2 1 1 1 1 2 3 4 4 4 5 5 5 5 6 6 6 7 7 8 8 8 9 9 9 9 9 10 10 10 10 9 9 9 9 9 9 10 10 10 9 8 8 8 8 9 10 11 11 12 12 12 12 11 12 12 12 13 14 14 15 16 17 17
7 6 5 5 4 4 3 2 2 1 1 1 2 2 2 3 3 4 4 4 5 5 6 6 7 7 7 8 8 8 8 8 8 8 8 8 8 8 8 7 7 7 7 8 8 8 7 7 7 7 8 9 10 11 11 11 12 12 12 13 13 13 14 15 16 17 18 18 19
7 6 5 5 5 4 4 3 3 2 2 1 1 1 2 2 3 3 4 4 4 4 5 5 5 6 6 6 7 7 7 7 7 7 7 7 7 6 6 5 4 4 3 4 5 5 5 6 6 7 8 9 9 10 10 11 11 12 13 13 14 14 15 16 17 18 18 18 18
9 8 7 7 6 6 5 4 3 3 2 2 2 2 2 2 3 3 3 4 4 4 4 4 4 4 4 5 5 5 5 5 5 5 5 5 4 3 2 2 1 1 2 2 3 3 4 5 6 7 7 8 8 8 9 9 10 11 11 12 13 14 15 16 16 17 17 17 17
11 11 10 10 9 8 6 5 4 3 3 2 2 2 1 1 1 2 2 2 2 3 3 3 3 3 3 3 3 3 2 2 2 2 1 1 1 1 2 2 2 1 2 3 3 4 5 6 7 7 7 8 8 7 7 7 8 9 10 11 12 13 14 14 14 14 14 14 14
13 12 12 12 11 10 8 8 7 7 7 7 7 6 6 6 5 5 4 4 3 1 1 2 2 2 2 1 1 2 2 3 3 3 4 4 4 4 4 3 2 2 2 3 4 5 6 7 8 8 8 8 7 7 6 6 6 7 8 9 10 11 11 11 11 11 11 12 12
13 13 13 12 12 12 12 12 12 12 12 12 12 12 12 12 11 10 9 8 7 6 5 4 4 4 5 5 5 6 6 6 7 7 7 7 6 5 4 3 2 3 4 4 5 6 7 7 7 7 7 7 7 7 7 6 4 4 6 7 8 8 8 9 10 10 11 11 11
13 13 13 13 13 14 14 13 13 13 13 13 13 14 13 13 12 12 11 10 10 11 11 11 11 11 11 11 11 10 10 9 9 8 7 6 6 5 4 4 4 5 6 5 5 6 6 6 6 5 5 5 5 5 4 3 3 4 5 6 6 7 8 9 10 10 10 10 10
13 13 13 13 14 14 14 14 14 13 13 13 13 13 13 13 13 13 12 12 12 12 13 13 13 13 13 13 13 13 12 11 10 8 7 5 4 4 4 4 5 6 6 5 5 5 5 5 5 5 5 5 5 4 3 3 4 3 4 4 5 7 8 9 10 10 10 10 9
13 13 13 14 14 15 15 15 15 15 15 15 14 13 13 13 13 13 13 12 11 11 10 10 9 10 10 11 12 12 12 11 10 9 8 6 5 4 4 4 5 5 5 6 6 6 6 6 6 6 6 6 5 5 5 4 2 2 3 4 6 8 10 10 11 10 10 9 9
14 13 14 14 14 15 15 15 16 16 16 16 15 15 14 14 14 13 12 11 10 10 10 9 8 8 9 9 10 11 11 10 9 9 8 7 6 5 4 5 5 6 6 7 8 8 8 8 7 7 6 5 5 5 5 3 3 3 5 7 9 10 11 11 11 10 10 9 9
14 14 14 14 14 14 15 15 16 16 16 16 16 16 16 15 15 14 13 11 11 12 12 11 11 11 11 11 11 11 10 9 9 10 10 9 8 7 7 7 8 8 9 9 9 9 9 9 8 7 5 4 5 5 5 5 6 7 8 10 11 11 11 11 10 10 9 9 8
14 14 14 14 14 14 14 15 15 15 15 15 15 16 15 15 15 15 14 14 14 15 15 15 15 15 14 14 13 13 12 11 10 11 11 11 10 9 9 9 10 11 11 11 10 10 10 9 8 7 5 4 4 5 6 7 8 9 10 10 11 10 10 10 10 9 9 9 9
14 14 14 14 14 14 14 15 15 14 14 14 14 14 14 14 14 14 14 14 15 15 15 15 15 14 14 14 13 13 12 12 11 11 11 11 10 9 9 10 11 12 12 12 12 12 11 10 9 7 5 5 5 6 7 7 8 9 10 10 10 9 9 9 9 9 10 10 10
13 13 13 13 13 14 14 14 14 14 13 13 13 13 13 13 13 12 13 13 14 14 14 14 13 13 12 12 12 12 12 12 12 11 10 10 9 9 9 10 12 13 13 13 13 13 12 11 10 7 6 6 7 8 8 8 9 10 10 10 9 9 10 10 10 11 11 11 11
12 13 13 13 13 13 14 14 14 13 13 13 12 12 12 12 12 12 12 13 13 13 13 13 13 12 12 11 11 12 12 13 13 12 11 11 11 11 12 13 14 14 15 14 14 14 14 13 11 9 8 8 9 9 9 9 10 11 11 10 10 10 10 11 12 12 12 13 13
Wind_Direction
163 162 161 159 159 158 158 159 161 163 165 166 168 170 172 174 176 179 182 185 187 189 192 196 199 201 203 205 206 208 209 209 210 212 213 214 216 217 218 220 221 222 223 224 225 227 228 229 230 231 231 232 233 235 236 236 236 236 236 237 237 238 239 239 240 240 240 239 239
161 161 160 159 158 157 157 158 160 163 165 166 168 170 173 175 177 179 182 185 188 191 194 197 200 202 204 205 207 208 209 210 211 212 214 216 218 219 220 221 222 223 224 225 226 227 228 229 230 231 232 233 234 235 236 236 236 236 237 237 238 239 239 240 241 241 242 242 241
160 159 158 157 156 155 155 156 158 161 163 165 167 169 172 175 177 179 181 185 188 191 194 197 200 203 205 206 207 208 209 210 211 213 215 216 218 220 221 223 223 224 225 226 227 228 229 229 230 231 232 233 234 234 235 235 235 236 237 238 238 239 240 240 241 242 242 243 242
159 158 157 155 155 155 156 157 158 160 162 164 166 169 172 175 178 180 182 185 188 191 194 197 200 203 205 206 207 208 209 210 212 213 215 217 219 220 222 223 224 225 226 227 227 228 229 230 230 232 232 233 234 234 235 235 235 236 237 238 239 239 240 241 242 242 242 243 243
159 158 157 156 156 157 158 160 161 162 163 164 166 169 172 176 178 181 183 185 188 192 195 197 200 203 205 206 207 208 208 210 212 213 216 217 219 220 222 223 224 225 226 227 228 228 229 229 230 231 233 233 234 235 235 235 235 236 237 238 239 240 240 242 242 243 243 243 243
160 160 159 159 159 160 162 164 166 166 166 167 168 170 173 176 179 182 185 188 191 194 197 199 201 204 206 207 207 207 208 210 211 213 216 217 219 220 221 222 224 225 226 227 228 228 228 229 230 231 232 233 234 235 235 235 235 236 237 239 239 240 241 242 243 243 244 244 244
161 161 161 162 163 164 165 167 169 170 170 170 172 173 175 178 181 184 187 190 194 197 200 202 205 206 207 208 208 208 209 210 212 214 215 217 218 220 221 222 223 224 226 226 227 228 228 228 229 230 231 233 234 235 235 235 235 236 237 238 240 240 241 242 243 244 244 244 244
163 163 163 164 166 167 167 168 170 171 173 174 176 177 179 181 184 187 190 193 196 200 204 206 209 210 211 210 210 209 210 211 212 214 215 216 218 219 221 222 223 224 225 226 227 227 228 228 228 229 231 232 233 234 235 234 235 236 237 239 240 242 242 243 244 244 244 244 244
164 165 165 166 167 168 168 168 170 172 174 176 179 181 183 185 187 190 193 196 199 203 206 210 212 213 214 214 213 212 212 213 214 215 216 217 218 219 220 222 223 224 226 226 227 227 228 228 229 230 231 231 233 234 234 234 235 236 238 239 241 243 243 244 244 244 244 244 244
163 165 165 166 167 167 168 168 170 172 175 177 181 184 187 189 191 193 196 199 203 206 210 212 214 215 216 216 216 215 215 216 217 218 218 219 219 220 221 222 223 225 226 227 227 228 228 229 229 230 231 232 233 235 236 235 235 236 238 240 241 243 244 245 245 245 244 244 243
157 161 163 164 165 166 167 168 170 174 176 178 181 185 189 192 195 197 200 203 206 210 213 215 216 216 217 217 218 218 218 219 220 220 221 222 222 222 223 224 225 226 227 228 228 229 229 230 230 231 233 234 234 235 236 237 236 237 239 240 241 243 244 245 245 245 245 245 244
150 155 159 161 163 165 167 169 172 175 179 181 184 188 192 196 199 201 204 207 210 213 216 217 217 218 218 218 219 220 221 222 223 223 224 225 225 226 226 227 227 228 229 230 230 230 230 231 231 232 234 235 236 236 236 237 237 238 239 241 242 243 244 245 246 246 246 246 246
148 153 156 160 163 165 168 171 174 178 182 186 189 193 196 200 203 206 208 210 214 216 219 220 220 220 220 220 221 222 223 224 225 226 227 228 229 229 230 230 230 230 231 232 232 233 233 233 234 234 235 236 237 237 237 237 238 239 240 241 242 243 245 246 247 247 247 247 247
151 153 156 159 163 167 169 172 176 180 184 189 194 198 202 206 209 211 213 215 217 219 222 223 224 224 224 224 224 225 226 227 228 229 230 231 232 232 232 233 233 233 233 234 234 234 235 236 236 236 237 237 238 238 239 239 239 240 241 242 243 244 246 248 249 249 249 248 248
154 156 159 161 164 167 170 173 177 181 186 191 197 202 207 212 215 217 218 220 222 223 225 227 228 228 228 228 227 227 228 229 230 232 233 234 235 235 235 235 235 235 235 235 235 236 236 237 238 239 239 240 240 240 241 241 241 242 243 244 245 247 249 251 252 252 251 250 249
157 159 161 164 166 169 172 175 178 183 188 195 200 206 211 215 218 221 223 225 226 227 228 229 230 231 231 230 229 229 229 230 231 233 235 236 237 238 238 238 238 238 237 237 237 238 238 239 239 240 241 242 242 243 243 243 244 245 246 247 249 250 252 255 257 258 257 254 251
160 163 166 168 170 172 174 177 181 187 193 199 205 210 214 218 221 224 226 227 229 229 230 231 231 232 232 232 231 229 229 230 232 233 235 237 239 240 241 241 241 241 240 240 240 240 240 241 241 242 243 244 245 245 245 246 246 247 248 250 252 254 256 259 262 264 263 261 256
162 166 169 173 175 177 180 182 186 191 197 203 209 213 217 220 222 225 228 229 230 230 230 231 232 232 232 232 231 230 230 230 232 234 236 238 240 242 244 244 245 245 244 244 243 243 243 244 244 245 246 246 247 248 248 248 248 249 251 252 255 257 260 262 264 267 268 267 262
163 168 173 177 181 184 186 189 192 196 201 206 211 215 218 221 223 226 229 230 231 230 231 231 232 232 233 233 232 232 232 232 233 235 237 239 241 243 245 247 248 249 248 248 248 248 248 248 248 248 249 249 250 250 250 250 251 251 253 255 257 259 262 264 266 268 270 270 266
157 168 176 183 189 192 194 196 199 202 205 209 212 216 219 221 224 227 231 233 232 232 232 232 233 233 234 235 236 236 236 236 237 238 239 241 243 245 247 249 251 252 252 253 254 254 253 253 253 252 252 253 253 254 254 254 254 254 255 257 259 261 263 265 267 269 270 269 267
128 145 160 173 184 192 199 203 207 210 212 214 216 218 221 223 226 230 233 236 237 237 236 236 237 237 239 240 241 242 242 243 243 244 244 245 247 248 250 252 254 255 256 257 258 259 259 258 258 257 257 257 256 256 257 256 256 257 258 259 261 263 265 267 269 270 270 269 267
98 104 113 127 140 151 166 183 196 205 211 215 219 221 224 226 228 231 235 239 241 242 242 243 243 243 244 245 247 248 250 250 250 250 251 251 252 253 254 255 257 259 260 261 262 263 263 263 261 260 259 258 257 257 257 257 258 259 260 263 266 270 273 275 275 274 273 272 270
104 116 148 177 171 164 167 175 183 191 201 210 215 219 223 226 229 232 236 240 242 244 246 247 248 248 249 250 251 253 254 255 256 256 256 256 257 258 259 260 261 263 264 266 266 266 266 265 263 261 258 256 256 256 257 258 261 263 267 272 275 279 280 280 279 277 276 274 273
120 164 211 224 227 228 227 226 226 225 226 227 227 227 228 232 234 237 241 243 244 246 248 249 250 251 252 252 254 255 257 258 260 260 261 261 261 262 263 265 266 268 270 271 270 269 268 266 263 259 257 255 254 256 258 262 266 271 276 280 281 281 280 278 277 275 274 274 274
86 87 97 178 223 232 238 239 240 240 240 240 241 241 240 243 245 247 250 250 250 250 251 250 251 252 254 254 255 256 257 260 262 264 265 265 266 267 269 271 273 275 276 275 274 274 272 270 266 262 259 257 258 259 263 267 272 276 280 280 279 277 274 272 272 272 273 275 276
79 78 79 82 86 91 95 125 188 217 228 234 237 240 241 243 246 249 252 255 255 255 255 254 254 254 255 256 257 257 258 260 262 265 267 269 270 272 274 277 280 282 282 281 281 281 281 278 272 268 265 264 264 266 269 271 273 273 272 272 272 272 272 272 274 275 277 278 278
78 80 83 85 88 90 94 100 110 129 165 197 212 220 227 230 235 240 245 251 255 256 256 255 256 256 256 257 257 257 257 259 261 264 266 268 269 272 274 278 284 288 289 287 285 283 280 277 273 268 266 266 267 268 269 269 268 266 266 267 269 272 275 278 279 280 280 281 282
74 77 82 88 93 96 98 101 105 110 123 140 165 189 208 214 221 226 232 240 245 248 250 250 251 251 252 252 252 253 254 255 258 259 260 262 262 266 272 277 281 291 301 296 286 280 275 270 266 265 265 265 267 268 268 268 268 267 269 271 273 276 278 279 281 283 286 288 290
68 71 77 83 87 89 90 93 98 107 121 136 155 178 197 209 213 219 224 231 236 239 240 240 239 239 239 241 244 246 248 251 252 254 254 255 257 261 262 255 245 308 325 317 305 292 282 275 272 270 270 270 271 271 271 271 273 274 275 277 278 280 281 283 286 290 293 297 299
65 68 71 74 76 77 78 82 88 95 104 112 121 136 151 165 171 181 194 206 215 219 220 219 217 217 221 227 230 231 231 230 230 226 221 198 147 128 130 131 126 62 352 336 322 308 298 293 289 286 283 280 277 275 275 277 279 282 285 288 289 290 291 293 296 299 303 306 307
63 65 67 68 67 67 68 72 76 80 83 85 86 85 84 82 82 81 82 83 86 101 156 191 191 187 184 179 158 130 113 106 101 99 98 99 104 109 111 112 102 53 6 347 329 316 309 305 302 297 292 287 282 279 274 273 278 290 300 304 302 300 300 303 306 309 312 314 315
62 63 63 62 60 61 63 67 71 74 76 77 78 77 75 73 71 71 71 71 71 74 79 87 94 97 97 96 95 94 93 91 90 92 95 99 102 104 102 90 68 31 11 356 337 323 314 309 305 299 294 288 282 274 268 264 279 311 323 316 308 305 308 311 315 319 321 324 327
61 61 61 59 58 59 61 65 67 70 71 71 71 71 69 67 67 67 68 71 75 78 80 81 83 84 84 85 86 87 86 86 87 89 93 99 100 99 88 61 37 19 7 352 336 323 315 309 306 304 302 300 293 283 277 282 335 345 333 315 309 310 317 324 330 335 340 344 348
58 59 58 57 57 58 60 62 65 67 68 68 67 67 66 64 62 62 64 69 75 78 80 80 80 81 82 82 81 81 81 83 85 86 88 90 90 82 64 42 25 10 355 342 332 326 322 322 326 332 335 334 332 336 352 19 14 349 322 313 317 328 338 348 356 1 5 7 8
53 55 56 57 58 59 61 62 65 67 68 67 66 66 65 63 60 60 63 70 76 79 80 80 82 82 82 82 79 77 76 77 78 79 79 79 74 64 49 34 18 0 348 344 343 342 342 343 347 349 351 354 2 16 29 34 15 339 330 341 350 358 6 13 18 20 20 19 17
49 53 56 57 59 61 62 62 63 64 64 63 63 63 63 63 63 65 69 75 80 81 80 79 79 78 75 73 74 73 74 75 76 76 73 69 64 56 44 32 19 7 0 358 355 352 350 348 349 350 355 8 27 38 39 33 22 13 12 13 16 19 23 25 27 27 25 22 18
48 51 55 57 57 58 59 60 60 59 58 57 58 59 60 61 64 68 74 79 81 81 80 79 79 78 76 75 75 76 78 80 82 81 77 70 61 52 43 34 25 19 13 8 3 359 356 355 354 355 2 20 39 44 41 38 36 33 31 31 32 32 31 32 32 31 29 25 20
49 52 55 56 56 56 57 59 59 57 56 55 56 57 58 60 62 66 71 77 79 80 80 79 78 77 76 76 77 78 78 79 82 82 79 74 64 53 41 33 27 24 21 18 14 11 9 7 6 5 9 23 35 39 41 43 43 43 41 40 39 36 34 34 34 33 31 27 23
51 54 57 58 58 58 59 60 61 60 59 58 58 58 58 58 60 63 68 73 77 78 77 77 76 75 74 75 75 74 72 72 74 77 78 76 69 56 41 32 26 26 27 27 25 23 21 20 20 19 20 27 35 39 42 47 49 48 47 44 40 37 37 36 36 35 33 30 26
55 57 59 61 61 61 62 62 63 64 64 63 63 63 62 62 63 65 68 72 75 76 76 76 77 78 78 77 75 72 70 68 66 68 70 70 65 55 42 34 31 32 34 35 33 30 29 29 30 31 36 44 49 50 51 54 53 50 48 44 40 38 38 38 38 36 34 30 27
59 60 61 62 63 63 63 64 64 64 65 66 66 66 67 68 68 69 71 73 74 75 77 78 80 81 81 79 77 75 72 69 65 61 60 59 56 51 45 41 39 41 42 41 38 35 33 33 34 38 47 58 63 62 60 59 54 49 46 43 41 38 37 36 35 33 30 27 24